sat.trackr.live / text

‹ back to catalog

STARLINK-2414

NORAD 48095 · 2021-027D

PAYLOAD ACTIVE UNKNOWN

§ Identity

Operator
Country
US
Launch date
2021-04-07
Launch site
AFETR
Launch vehicle
Mass (kg)
RCS (m²)

Purposes: comms

External: N2YO · Heavens-Above · Gunter

§ Orbital elements

Epoch: 2026-09-19T19:56:37.944672Z

Period
94.01 min
Inclination
53.1623°
Eccentricity
0.0002511
Mean motion
15.31694584 rev/d
Perigee alt
469.0 km
Apogee alt
472.5 km
Semi-major
6,848.9 km
B*
2.4457e-5
RAAN
341.9563°
Arg perigee
48.9776°
Mean anomaly
311.1442°
Rev number
30,227

§ Raw data

STARLINK-24141 48095U 21027D   26262.83099473  .00000393  00000+0  24457-4 0  99992 48095  53.1623 341.9563 0002511  48.9776 311.1442 15.31694584302275

JSON: /api/v1/satellites/48095 · /tle

For live sub-satellite position, see the globe view (requires WebGL).

§ Visibility from observer

Set your observer location to see the next 7 days of passes ≥ 10°. The values pass through the URL so the page stays shareable.

No JS? Fill the form by hand. The geolocation button needs JavaScript.